Regional Weather Roundup
Issued by NWS Little Rock, AR

Home | Current Version | Previous Version | Graphics & Text | Print | Product List | Glossary On
Versions: 1 2 3 4 5 6 7 8 9 10 11 12 13 14 15 16 17 18 19 20 21 22 23 24 25 26 27 28 29 30 31 32 33 34 35 36 37 38 39 40 41 42 43 44 45 46 47 48 49 50
000
ASUS44 KLZK 062305
RWRLZK

WEATHER ROUNDUP FOR ARKANSAS
NATIONAL WEATHER SERVICE LITTLE ROCK AR
600 PM CDT WED MAY 06 2015

NOTE: "FAIR" INDICATES FEW OR NO CLOUDS BELOW 12,000 FEET WITH NO
SIGNIFICANT WEATHER AND/OR OBSTRUCTIONS TO VISIBILITY.

ARZ001-003-010-029-070000-
NORTHWEST ARKANSAS

CITY           SKY/WX    TMP DP  RH WIND       PRES   REMARKS
FAYETTEVILLE   MOSUNNY   75  62  64 SE13G23   29.96F
FORT SMITH     MOSUNNY   80  52  37 SE12G18   29.93F
HARRISON       PTSUNNY   77  56  48 S16       30.01S
BENTONVILLE    MOSUNNY   77  55  47 S18       29.97F
ROGERS         PTSUNNY   77  56  48 S17G25    29.96F
SILOAM SPGS    MOSUNNY   75  55  50 SE12G18   29.96F
HIGHFILL       MOSUNNY   76  57  51 S21       29.95F
SPRINGDALE     PTSUNNY   77  57  50 SE12G28   29.99F
$$

ARZ004-005-016-070000-
NORTH CENTRAL ARKANSAS

CITY           SKY/WX    TMP DP  RH WIND       PRES   REMARKS
BATESVILLE     MOSUNNY   81  55  41 S7        30.01F
FLIPPIN        PTSUNNY   77  55  47 SE9       29.99S
MTN HOME       PTSUNNY   76  55  48 SE7       30.00F
$$

ARZ040-041-070000-
WEST CENTRAL ARKANSAS

CITY           SKY/WX    TMP DP  RH WIND       PRES   REMARKS
MENA           PTSUNNY   77  59  53 SE7       29.98F
MOUNT IDA      PTSUNNY   78  58  49 VRB3      29.96F
$$

ARZ009-017-025-026-028-070000-
NORTHEAST ARKANSAS

CITY           SKY/WX    TMP DP  RH WIND       PRES   REMARKS
CORNING          N/A     84  48  28 S14G21    30.02F
JONESBORO      MOSUNNY   82  51  34 S13       30.02F
NEWPORT        PTSUNNY   83  52  34 SE14      30.02F
WALNUT RIDGE   SUNNY     82  52  34 S16       30.01F
BLYTHEVILLE    PTSUNNY   82  50  32 SE10      30.04F
$$

ARZ022-023-033-042-044-070000-
CENTRAL ARKANSAS

CITY           SKY/WX    TMP DP  RH WIND       PRES   REMARKS
LITTLE ROCK    PTSUNNY   81  54  39 S8        29.99F
N LITTLE ROCK  PTSUNNY   80  59  48 S10G16    29.99F
JACKSONVILLE   MOSUNNY   81  57  44 S8G18     29.99F
SEARCY         MOSUNNY   83  58  42 S10       30.01F
HOT SPRINGS    MOSUNNY   79  58  48 S5        29.98F
RUSSELLVILLE   PTSUNNY   80  59  48 S7        29.97F
CLINTON        FAIR      77  59  53 SE5       30.01F
$$

ARZ036-070000-
EAST ARKANSAS

CITY           SKY/WX    TMP DP  RH WIND       PRES   REMARKS
WEST MEMPHIS   SUNNY     81  53  37 S15       30.03F
$$

ARZ050-053-066-070-073-070000-
SOUTHWEST ARKANSAS

CITY           SKY/WX    TMP DP  RH WIND       PRES   REMARKS
ARKADELPHIA    FAIR      82  66  58 VRB5      29.98F
CAMDEN         MOSUNNY   81  57  44 NE9       29.98F
TEXARKANA      PTSUNNY   78  62  57 SE8       29.95F
EL DORADO      SUNNY     82  59  45 SE8       29.98F
DE QUEEN       CLOUDY    78  62  57 SE9       29.93F
$$

ARZ056-057-069-070000-
SOUTHEAST ARKANSAS

CITY           SKY/WX    TMP DP  RH WIND       PRES   REMARKS
PINE BLUFF     SUNNY     81  56  42 S10       30.00S
STUTTGART      MOSUNNY   84  54  34 SE13      30.01S
MONTICELLO     SUNNY     83  55  38 S7        30.00F

$$





USA.gov is the U.S. government's official web portal to all federal, state and local government web resources and services.